Terminal Aerodrome Forecast
Issued by NWS

Home | Current Version | Previous Version | Text Only | Print | Product List | Glossary On
Versions: 1 2 3 4 5 6 7 8 9 10 11 12 13 14 15 16 17 18
000
FTUS43 KJKL 250500
TAFSME
TAF
KSME 250536Z 2506/2606 VRB03KT 4SM BR FEW250
      TEMPO 2506/2509 P6SM NSW
     FM251000 VRB03KT 2SM BR SCT002
     FM251300 23006KT P6SM SCT030 BKN050=

USA.gov is the U.S. government's official web portal to all federal, state and local government web resources and services.